CDT,Max TemperatureF,Mean TemperatureF,Min TemperatureF,Max Dew PointF,MeanDew PointF,Min DewpointF,Max Humidity, Mean Humidity, Min Humidity, Max Sea Level PressureIn, Mean Sea Level PressureIn, Min Sea Level PressureIn, Max VisibilityMiles, Mean VisibilityMiles, Min VisibilityMiles, Max Wind SpeedMPH, Mean Wind SpeedMPH, Max Gust SpeedMPH,PrecipitationIn, CloudCover, Events, WindDirDegrees
2011-10-1,81,62,44,39,37,32,82,43,18,30.27,30.20,30.16,10,10,10,9,2,,0.00,0,,117
2011-10-2,84,68,55,39,37,35,51,33,18,30.22,30.15,30.09,10,10,10,13,8,,0.00,0,,161
2011-10-3,89,74,60,39,38,36,42,28,17,30.18,30.12,30.08,10,10,10,18,11,23,0.00,0,,169
2011-10-4,89,76,63,43,39,36,38,29,19,30.19,30.11,30.05,10,10,10,15,9,22,0.00,0,,163
2011-10-5,84,71,60,48,41,38,44,34,24,30.11,30.05,29.96,10,10,10,18,9,36,0.00,2,Rain,158
2011-10-6,88,78,69,52,47,41,51,35,23,29.96,29.91,29.84,10,10,10,24,15,36,0.00,1,,162
2011-10-7,84,78,73,63,59,48,68,51,37,29.99,29.93,29.88,10,10,10,25,16,32,0.00,3,,156
2011-10-8,84,73,62,64,61,54,94,78,43,30.09,30.02,29.91,10,6,2,22,11,32,1.20,6,Rain-Thunderstorm,111
2011-10-9,66,62,57,63,60,54,94,92,87,30.09,30.05,30.01,10,6,2,15,4,20,1.58,8,Rain,343
2011-10-10,71,62,55,57,54,52,94,82,53,30.12,30.05,29.98,10,9,3,7,5,,0.00,4,,283
2011-10-11,79,66,55,58,55,52,93,69,45,29.97,29.86,29.78,10,10,9,15,6,20,0.01,1,,169
2011-10-12,82,70,59,61,55,43,94,67,25,29.88,29.79,29.74,10,10,6,22,8,28,0.03,1,Rain-Thunderstorm,315
2011-10-13,77,64,51,46,42,36,74,48,23,30.01,29.94,29.88,10,10,10,10,5,17,0.00,0,,316
2011-10-14,84,70,55,50,45,42,67,48,24,30.02,29.92,29.88,10,10,10,9,6,,0.00,0,,161
2011-10-15,86,70,55,52,44,35,59,43,28,30.09,30.02,29.95,10,10,10,14,8,20,0.00,0,,137
2011-10-16,90,78,64,54,51,46,65,44,26,29.95,29.91,29.85,10,10,10,14,10,21,0.00,0,,229
2011-10-17,78,66,55,55,45,31,67,51,36,29.99,29.82,29.67,10,10,10,16,8,33,0.00,3,,29
2011-10-18,64,55,46,39,33,26,74,49,24,30.13,30.08,30.00,10,10,10,15,9,31,0.00,1,,342
2011-10-19,61,51,39,33,31,28,77,50,30,30.16,30.10,30.07,10,10,10,13,5,25,0.00,0,,329
2011-10-20,68,51,34,34,32,30,85,53,26,30.14,30.08,30.00,10,10,10,9,3,,0.00,0,,160
2011-10-21,77,60,45,46,38,32,65,44,24,30.17,30.11,30.06,10,10,10,8,5,,0.00,0,,145
2011-10-22,80,66,53,59,52,44,83,64,46,30.07,30.00,29.89,10,10,10,18,7,26,0.00,3,Rain-Thunderstorm,125
2011-10-23,78,62,48,55,51,46,94,77,39,30.08,30.03,29.98,10,7,0,7,2,,0.01,0,Fog,163
2011-10-24,84,68,55,56,52,47,90,60,29,30.16,30.08,30.01,10,10,8,16,9,24,0.00,0,,199
2011-10-25,84,74,66,58,56,53,65,54,41,29.99,29.91,29.81,10,10,10,22,15,34,0.00,1,Thunderstorm,182
2011-10-26,68,62,54,58,45,39,90,60,46,29.99,29.96,29.90,10,10,8,12,7,23,0.00,5,,29
2011-10-27,54,50,44,44,41,36,90,75,55,30.20,30.15,30.10,10,9,4,12,6,24,0.51,7,Rain,21
2011-10-28,61,48,37,41,35,29,93,68,32,30.32,30.26,30.20,10,8,4,8,3,,0.00,0,,244
2011-10-29,66,54,42,38,34,29,76,53,25,30.25,30.15,30.02,10,10,10,20,9,26,0.01,0,,196
2011-10-30,66,55,43,39,35,30,76,49,28,30.21,30.11,30.00,10,10,10,13,8,,0.00,0,,228
2011-10-31,73,56,39,47,40,34,79,58,34,30.20,30.12,30.01,10,10,10,14,7,,0.00,0,,186